[TLELIST] Archives

 

[list_settings.list_name] Current TLEs

December 25th 2013 PST

HST 1 20580U 90037B 13358.72753682 .00003043 00000-0 20061-3 0 4025 2 20580 028.4705 103.1212 0002744 221.0309 292.1557 15.04406350 98418 ISS (ZARYA) 1 25544U 98067A 13359.37357639 .00011619 00000-0 21091-3 0 3150 2 25544 051.6498 241.0620 0004510 310.3924 026.9945 15.50043704864352 CXO 1 25867U 99040B 13358.34377700 -.00000458 00000-0 00000+0 0 9741 2 25867 076.3902 328.9151 8352791 275.9786 000.3563 00.37801401 11255 ____________________________________________________________________ These 2-Line ...Continue Reading

[list_settings.list_name] Current TLEs

December 24th 2013 PST

HST 1 20580U 90037B 13357.72553249 .00003097 00000-0 20436-3 0 4015 2 20580 028.4703 109.6970 0002809 208.6551 267.1113 15.04402544 98264 ISS (ZARYA) 1 25544U 98067A 13358.17692425 .00013873 00000-0 25034-3 0 3078 2 25544 051.6504 246.9854 0004609 304.3411 191.2117 15.50028361864175 CXO 1 25867U 99040B 13358.34377700 -.00000458 00000-0 00000+0 0 9741 2 25867 076.3902 328.9151 8352791 275.9786 000.3563 00.37801401 11255 ____________________________________________________________________ These 2-Line ...Continue Reading

[list_settings.list_name] Current TLEs

December 23rd 2013 PST

HST 1 20580U 90037B 13356.52613634 .00002987 00000-0 19676-3 0 4007 2 20580 028.4701 117.5682 0002861 194.1807 253.0292 15.04397001 98073 ISS (ZARYA) 1 25544U 98067A 13357.33347373 .00017168 00000-0 30790-3 0 3014 2 25544 051.6501 251.1637 0004591 300.2126 165.7598 15.50015877864040 CXO 1 25867U 99040B 13358.34377700 -.00000458 00000-0 00000+0 0 9741 2 25867 076.3902 328.9151 8352791 275.9786 000.3563 00.37801401 11255 ____________________________________________________________________ These 2-Line ...Continue Reading

[list_settings.list_name] Current TLEs

December 22nd 2013 PST

HST 1 20580U 90037B 13354.80793413 .00003045 00000-0 20086-3 0 3990 2 20580 028.4697 128.8451 0002920 174.6192 308.7656 15.04387704 97825 ISS (ZARYA) 1 25544U 98067A 13356.47391204 .00018784 00000-0 33634-3 0 2935 2 25544 051.6502 255.4211 0004540 298.2867 048.1821 15.49992315863904 CXO 1 25867U 99040B 13358.34377700 -.00000458 00000-0 00000+0 0 9741 2 25867 076.3902 328.9151 8352791 275.9786 000.3563 00.37801401 11255 ____________________________________________________________________ These 2-Line ...Continue Reading

[list_settings.list_name] Current TLEs

December 21st 2013 PST

HST 1 20580U 90037B 13354.80793413 .00003045 00000-0 20086-3 0 3990 2 20580 028.4697 128.8451 0002920 174.6192 308.7656 15.04387704 97825 ISS (ZARYA) 1 25544U 98067A 13355.43996528 .00019199 00000-0 34403-3 0 2857 2 25544 051.6510 260.5424 0004559 293.5197 039.8265 15.49954766863749 CXO 1 25867U 99040B 13358.34377700 -.00000458 00000-0 00000+0 0 9741 2 25867 076.3902 328.9151 8352791 275.9786 000.3563 00.37801401 11255 ____________________________________________________________________ These 2-Line ...Continue Reading

[list_settings.list_name] Current TLEs

December 20th 2013 PST

HST 1 20580U 90037B 13352.54023385 .00003090 00000-0 20406-3 0 3977 2 20580 028.4694 143.7280 0003099 150.0875 267.7142 15.04374651 97474 ISS (ZARYA) 1 25544U 98067A 13354.28418337 .00019533 00000-0 34260-3 0 2770 2 25544 051.6493 266.2683 0004470 288.4395 071.6625 15.49907953267674 CXO 1 25867U 99040B 13353.05329747 -.00000546 00000-0 00000+0 0 9728 2 25867 076.3624 329.1661 8357133 276.0668 000.0825 00.37796953 11232 ____________________________________________________________________ These 2-Line ...Continue Reading

[list_settings.list_name] Current TLEs

December 19th 2013 PST

HST 1 20580U 90037B 13352.54023385 .00003090 00000-0 20406-3 0 3977 2 20580 028.4694 143.7280 0003099 150.0875 267.7142 15.04374651 97474 ISS (ZARYA) 1 25544U 98067A 13353.40054550 .00019519 00000-0 35058-3 0 2697 2 25544 051.6521 270.6406 0004682 288.2373 178.2677 15.49876922863435 CXO 1 25867U 99040B 13353.05329747 -.00000546 00000-0 00000+0 0 9728 2 25867 076.3624 329.1661 8357133 276.0668 000.0825 00.37796953 11232 ____________________________________________________________________ These 2-Line ...Continue Reading

[list_settings.list_name] Current TLEs

December 18th 2013 PST

HST 1 20580U 90037B 13350.89396491 .00003254 00000-0 21556-3 0 3962 2 20580 028.4689 154.5324 0003217 132.9847 351.4750 15.04364924 97239 ISS (ZARYA) 1 25544U 98067A 13352.43347462 .00020849 00000-0 37429-3 0 2610 2 25544 051.6518 275.4302 0004614 284.8674 182.3283 15.49843379863282 CXO 1 25867U 99040B 13353.05329747 -.00000546 00000-0 00000+0 0 9728 2 25867 076.3624 329.1661 8357133 276.0668 000.0825 00.37796953 11232 ____________________________________________________________________ These 2-Line ...Continue Reading

[list_settings.list_name] Current TLEs

December 17th 2013 PST

HST 1 20580U 90037B 13350.89396491 .00003254 00000-0 21556-3 0 3962 2 20580 028.4689 154.5324 0003217 132.9847 351.4750 15.04364924 97239 ISS (ZARYA) 1 25544U 98067A 13351.46706374 .00021791 00000-0 39131-3 0 2544 2 25544 051.6516 280.2174 0004644 281.0041 190.6865 15.49806338863137 CXO 1 25867U 99040B 13353.05329747 -.00000546 00000-0 00000+0 0 9728 2 25867 076.3624 329.1661 8357133 276.0668 000.0825 00.37796953 11232 ____________________________________________________________________ These 2-Line ...Continue Reading

[list_settings.list_name] Current TLEs

December 16th 2013 PST

HST 1 20580U 90037B 13349.83375275 .00003584 00000-0 23865-3 0 3951 2 20580 028.4687 161.4906 0003269 121.8378 009.4978 15.04359898 97071 ISS (ZARYA) 1 25544U 98067A 13350.43375266 .00022221 00000-0 39949-3 0 2469 2 25544 051.6501 285.3354 0004587 275.1077 187.7075 15.49761280862973 CXO 1 25867U 99040B 13350.40800502 -.00000701 00000-0 00000+0 0 9719 2 25867 076.3428 329.3184 8361238 276.0983 359.9378 00.37799930 11223 ____________________________________________________________________ These 2-Line ...Continue Reading
  • This mailing list is a public mailing list - anyone may join or leave, at any time.
  • This mailing list is announce-only.

International Space Station (ISS) / Hubble Space Telescope (HST) / Chandra X-Ray Observatory Orbital Data via EMAIL

Privacy Policy:

Private list